Weather History for Amundsen-Scott, Antarctica

Change the Weather History Date:

Friday, November 4, 2011

  Actual Average Record
Temperature  
Mean Temperature -26 °F -  
Max Temperature -16 °F - - ()
Min Temperature -37 °F - - ()
Degree Days  
Heating Degree Days 92    
Moisture  
Dew Point -    
Average Humidity    
Maximum Humidity    
Minimum Humidity    
Precipitation  
Precipitation 0.00 in 0.00 in - ()
Sea Level Pressure  
Sea Level Pressure 29.42 in    
Wind  
Wind Speed 10 mph ()    
Max Wind Speed 24 mph    
Max Gust Speed -    
Visibility 2.7 miles    
Events Snow    
T = Trace of Precipitation, MM = Missing Value Source: Averaged Metar Reports

Daily Weather History Graph

Daily Weather History Graph

Search for Another Location

Airport:

Trip Planner

Search our weather history database for the weather conditions in past years. The results will help you decide how hot, cold, wet, or windy it might be!

Date:

Astronomy

Jan. 01, 1970 Rise Set
Actual Time Sun does not set Sun does not set
Civil Twilight Sun does not set Sun does not set
Nautical Twilight Sun does not set Sun does not set
Astronomical Twilight Sun does not set Sun does not set
Moon No Moon Rise No Moon Set
Length of Visible Light 24h 00m
Length of Day
24h 00m
Waxing Gibbous, 63% of the Moon is Illuminated
Nov 4
Waxing Gibbous
Nov 11
Full
Nov 19
Last Quarter
Nov 25
New
Dec 2
First Quarter

Hourly Weather History & Observations

Time (NZDT) Temp. Windchill Dew Point Humidity Pressure Visibility Wind Dir Wind Speed Gust Speed Precip Events Conditions
12:50 AM -36.4 °F -56.8 °F - N/A% 29.41 in 6.2 mi ENE 6.9 mph - N/A   Overcast
1:00 AM -37 °F - - %  in 7 mi ENE 6.9 mph - -   Partly Cloudy
1:50 AM -32.8 °F -54.1 °F - N/A% 29.42 in 6.2 mi NE 8.1 mph - N/A   Overcast
2:50 AM -32.8 °F -55.6 °F - N/A% 29.42 in 6.2 mi NE 9.2 mph - N/A   Overcast
3:50 AM -36.4 °F -58.5 °F - N/A% 29.42 in 6.2 mi ENE 8.1 mph - N/A   Overcast
4:50 AM -36.4 °F -61.5 °F - N/A% 29.44 in 6.2 mi NE 10.4 mph - N/A   Overcast
5:42 AM -31.0 °F -54.7 °F - N/A% 29.43 in 1.5 mi ENE 10.4 mph - N/A   Overcast
5:50 AM -31.0 °F -51.9 °F - N/A% 29.44 in 1.5 mi NE 8.1 mph - N/A   Overcast
6:30 AM -27.4 °F -49.0 °F - N/A% 29.44 in 3.7 mi ENE 9.2 mph - N/A Snow Light Snow Grains
6:50 AM -27.4 °F -51.4 °F - N/A% 29.44 in - ENE 11.5 mph - N/A Snow Light Snow Grains
7:00 AM -28 °F - - %  in 4 mi NE 10.4 mph - - Snow Snow Grains
7:34 AM -27.4 °F -49.0 °F - N/A% 29.44 in 1.5 mi NE 9.2 mph - N/A Snow Light Snow Grains
7:50 AM -27.4 °F -49.0 °F - N/A% 29.44 in 1.5 mi NE 9.2 mph - N/A Snow Light Snow Grains
8:21 AM -27.4 °F -50.3 °F - N/A% 29.44 in - NE 10.4 mph - N/A Snow Light Snow Grains
8:50 AM -27.4 °F -51.4 °F - N/A% 29.44 in 2.5 mi ENE 11.5 mph - N/A   Ice Crystals
9:39 AM -29.2 °F -53.7 °F - N/A% 29.45 in - NE 11.5 mph - N/A   Ice Crystals
9:50 AM -31.0 °F -56.0 °F - N/A% 29.45 in 2.5 mi NE 11.5 mph - N/A   Ice Crystals
10:22 AM -31.0 °F -54.7 °F - N/A% 29.44 in 1.5 mi ENE 10.4 mph - N/A   Ice Crystals
10:50 AM -27.4 °F -50.3 °F - N/A% 29.44 in 2.5 mi NE 10.4 mph - N/A Snow Light Snow Grains
11:20 AM -23.8 °F -48.9 °F - N/A% 29.44 in 1.5 mi NNE 13.8 mph - N/A Snow Light Snow Grains
11:50 AM -23.8 °F -46.9 °F - N/A% 29.43 in 1.5 mi NE 11.5 mph - N/A Snow Light Snow Grains
12:50 PM -22.0 °F -46.6 °F - N/A% 29.42 in 1.2 mi North 13.8 mph - N/A   Ice Crystals
1:50 PM -22.0 °F -47.5 °F - N/A% 29.43 in 1.0 mi North 15.0 mph - N/A   Ice Crystals
2:15 PM -22.0 °F -42.3 °F - N/A% 29.43 in - North 9.2 mph - N/A   Overcast
2:38 PM -20.2 °F -35.5 °F - N/A% 29.43 in - NE 5.8 mph - N/A   Overcast
2:50 PM -20.2 °F -40.1 °F - N/A% 29.43 in - NE 9.2 mph - N/A   Overcast
3:24 PM -16.6 °F -40.6 °F - N/A% 29.42 in 1.5 mi NNE 15.0 mph - N/A   Ice Crystals
3:50 PM -20.2 °F -47.5 °F - N/A% 29.42 in 1.5 mi NNE 18.4 mph - N/A Snow Ice Crystals
4:15 PM -22.0 °F -51.9 °F - N/A% 29.42 in 0.6 mi North 21.9 mph - N/A Snow Ice Crystals
4:37 PM -23.8 °F -53.6 °F - N/A% 29.42 in 1.0 mi North 20.7 mph - N/A Snow Ice Crystals
4:50 PM -23.8 °F -52.2 °F - N/A% 29.41 in 1.2 mi NNE 18.4 mph - N/A Snow Ice Crystals
5:21 PM -23.8 °F -52.9 °F - N/A% 29.40 in 1.2 mi NNE 19.6 mph - N/A Snow Ice Crystals
5:50 PM -25.6 °F -57.9 °F - N/A% 29.40 in 1.5 mi NNE 24.2 mph - N/A Snow Ice Crystals
6:50 PM -25.6 °F -56.7 °F - N/A% 29.39 in 1.5 mi NNE 21.9 mph - N/A Snow Ice Crystals
7:00 PM -26 °F - - %  in 1 mi NNE 21.9 mph - - Snow Snow
7:50 PM -25.6 °F -45.4 °F - N/A% 29.40 in 1.5 mi NE 8.1 mph - N/A Snow Ice Crystals
8:30 PM -25.6 °F -49.2 °F - N/A% 29.40 in 2.5 mi NNE 11.5 mph - N/A   Ice Crystals
8:50 PM -25.6 °F -49.2 °F - N/A% 29.40 in 3.7 mi ENE 11.5 mph - N/A   Ice Crystals
9:50 PM -25.6 °F -52.1 °F - N/A% 29.39 in - NNE 15.0 mph - N/A Snow Ice Crystals
10:50 PM -27.4 °F -56.1 °F - N/A% 29.38 in 3.7 mi NNE 17.3 mph - N/A Snow Ice Crystals
11:50 PM -31.0 °F -51.9 °F - N/A% 29.39 in 3.7 mi NE 8.1 mph - N/A Snow Ice Crystals